Regional Weather Roundup
Issued by NWS

Home | Current Version | Previous Version | Graphics & Text | Print | Product List | Glossary On
Versions: 1 2 3 4 5 6 7 8 9 10 11 12 13 14 15 16 17 18 19 20 21 22 23 24 25 26 27 28 29 30 31 32 33 34 35 36 37 38 39 40 41 42 43 44 45 46 47 48 49 50
000
ASUS43 KLOT 181403
RWRIL

ILLINOIS REGIONAL WEATHER ROUNDUP
NATIONAL WEATHER SERVICE CHICAGO/ROMEOVILLE IL
800 AM CST THU JAN 18 2018

NOTE: "FAIR" INDICATES FEW OR NO CLOUDS BELOW 12,000 FEET WITH NO
SIGNIFICANT WEATHER AND/OR OBSTRUCTIONS TO VISIBILITY.

* THESE STATIONS ARE NOT UNDER NWS QUALITY CONTROL. THEY ALSO MAY NOT
  REPORT WEATHER SUCH AS PRECIPITATION OR FOG.

ILZ001-002-007-009-015-016-024-181500-
NORTHWEST ILLINOIS

CITY           SKY/WX    TMP DP  RH WIND       PRES   REMARKS
MOLINE         FAIR      19  10  68 SW9       30.15F WCI   8
STERLING*      FAIR      16  12  84 VRB3      30.15F
SAVANNA*       FAIR      17  10  74 SW10      30.13S WCI   5
$$

ILZ003-004-008-010-011-017-018-181500-
NORTH CENTRAL ILLINOIS

CITY           SKY/WX    TMP DP  RH WIND       PRES   REMARKS
ROCKFORD       FAIR      16   9  74 SW7       30.14R WCI   6
FREEPORT*      FAIR      14   9  80 SW14      30.11F WCI  -1
ROCHELLE*      FAIR      16  10  80 SW17      30.14S WCI   0
DE KALB*       FAIR      16  10  77 SW8       30.12F WCI   5
PERU*          FAIR      16   9  73 SW17      30.17F WCI   0
$$

ILZ005-006-012>014-019>023-181500-
NORTHEAST ILLINOIS

CITY           SKY/WX    TMP DP  RH WIND       PRES   REMARKS
CHICAGO-OHARE  FAIR      17  10  74 SW15      30.11F WCI   2
CHICAGO-MIDWAY FAIR      18  11  74 SW17      30.14F WCI   3
AURORA         FAIR      15   9  76 SW12G17   30.14F WCI   2
LANSING*       FAIR      15  10  83 SW10      30.18F WCI   2
JOLIET*        FAIR      17  11  76 SW6       30.18F WCI   9
WAUKEGAN       FAIR      18  10  71 SW12G20   30.06F WCI   5
DUPAGE AIRPORT FAIR      15  10  80 SW16      30.12F HAZE    WCI  -1
KANKAKEE*      FAIR      15   9  75 SW15      30.23F WCI   0
WHEELING       FAIR      17  10  74 SW9       30.12F WCI   6
MORRIS*        FAIR      17  10  73 SW12      30.18S WCI   4
ROMEOVILLE*    FAIR      17  11  77 SW13      30.16F WCI   3
NORTHERLY ISL    N/A     18  10  71 SW16        N/A  WCI   3
$$

LMZ740>746-181500-
SOUTHERN LAKE MICHIGAN

STATION/POSITION SKY/WX   TEMP    WIND        PRES    VSBY  WAVE
                          AIR SEA DIR/SP/G                  HT/PER
                          (F)     (DEG/KT/KT) (MB)    (MI)  (FT/S)
HARRISON CRIB              21     220/ 19/ 22   N/A
BURNHAM HARBOR             19     240/ 14/ 19   N/A
CALUMET HARBOR             17     210/  8/ 14 1020.8F
BURNS HARBOR               16     220/ 15/ 20 1022.0F
MICHIGAN CITY              17     200/ 16/ 18   N/A
$$

ILZ025>027-034>036-040-047-049-050-058-095>099-181500-
WEST-CENTRAL ILLINOIS

CITY           SKY/WX    TMP DP  RH WIND       PRES   REMARKS
QUINCY         CLEAR     18   8  65 SW13      30.27F WCI   5
GALESBURG*     FAIR      17  11  79 S14       30.20F WCI   3
MACOMB*        CLOUDY    18  11  74 SW16      30.25F WCI   3
JACKSONVILLE*  CLOUDY    18   8  65 SW8       30.32S WCI   8
PITTSFIELD*    CLOUDY    21   9  60 SW13      30.32R WCI   9
$$

ILZ028>032-037-038-041>044-048-051>054-059>061-181500-
CENTRAL ILLINOIS

CITY           SKY/WX    TMP DP  RH WIND       PRES   REMARKS
PONTIAC        FAIR      16  11  81 SW13G21   30.22F WCI   2
BLOOMINGTON    FAIR      14   9  80 SW16      30.25F WCI  -2
DECATUR        FAIR      17   9  70 SW15      30.31S WCI   2
PEORIA         FAIR      15   8  73 SW9       30.25F WCI   3
LACON*         FAIR      19  10  68 SW12      30.21F WCI   6
LINCOLN*       FAIR      18  10  73 SW6       30.30S WCI  10
SPRINGFIELD    FAIR      17   9  70 SW8       30.32F WCI   7
TAYLORVILLE    FAIR      18   8  67 SW14      30.34R WCI   4
$$

ILZ033-039-045-046-055>057-062-063-181500-
EAST-CENTRAL ILLINOIS

CITY           SKY/WX    TMP DP  RH WIND       PRES   REMARKS
CHAMPAIGN      FAIR      14   8  77 SW14      30.29F WCI  -1
DANVILLE*      FAIR      14   8  76 SW9       30.26F WCI   2
RANTOUL*       FAIR      15  10  79 SW13      30.28S WCI   1
MATTOON        FAIR      14   8  77 S12       30.32F WCI   0
PARIS*         FAIR      13   8  81 SW9       30.34F WCI   0
$$

ILZ079-100>102-181500-
SOUTHWEST ILLINOIS

CITY           SKY/WX    TMP DP  RH WIND       PRES   REMARKS
ALTON          CLEAR     18  10  73 SW6       30.37S WCI   9
BELLEVILLE     CLOUDY    16   9  73 S3        30.37F
CAHOKIA*       CLOUDY    22   8  55 SW7       30.38S WCI  13
$$

ILZ064>066-069>071-074>076-080>082-084>086-088>090-092>094-181500-
SOUTH-CENTRAL ILLINOIS

CITY           SKY/WX    TMP DP  RH WIND       PRES   REMARKS
CARBONDALE     FAIR      15  10  80 S8        30.45S WCI   4
CAIRO*         FAIR      12   9  88 S6        30.50S WCI   2
EFFINGHAM*     FAIR      17  10  72 S5        30.39R WCI  10
MARION         CLEAR     12   9  85 S6        30.46S WCI   3
MT. VERNON     FAIR      14  11  87 SW9       30.41F WCI   2
CENTRALIA*     CLOUDY    17  10  74 S7        30.39S WCI   8
SALEM*         FAIR      18   9  68 S8        30.39S WCI   8
METROPOLIS*    FAIR       8   6  90 S5        30.50S WCI   0
$$

ILZ067-068-072-073-078-083-087-091-181500-
SOUTHEAST ILLINOIS

CITY           SKY/WX    TMP DP  RH WIND       PRES   REMARKS
LAWRENCEVILLE  FAIR       7   2  80 S8        30.42F WCI  -6
FLORA*         FAIR      14   9  78 S7        30.41S WCI   4
FAIRFIELD*     FAIR      12   7  79 S6        30.42S WCI   3
HARRISBURG*    FAIR      12   8  86 SW6       30.46S WCI   2
ROBINSON*      FAIR      11   6  78 SW6       30.41S WCI   2
CARMI*         FAIR      15   9  77 S8        30.44F WCI   3
$$

ABBREVIATIONS USED IN REMARKS
   TC - TEMPERATURE IN CELSIUS
  WCI - WIND CHILL INDEX
   HX - HEAT INDEX
  VSB - VISIBILITY
$$




USA.gov is the U.S. government's official web portal to all federal, state and local government web resources and services.